• Processing (Info)

  • MPEC 2019-M55 : 2019 LH6

    The following Minor Planet Electronic Circular may be linked-to from your own Web pages, but must not otherwise be redistributed electronically.

    A form allowing access to any MPEC is at the bottom of this page.


    Read MPEC 2019-M54 Read MPEC 2019-M56


    M.P.E.C. 2019-M55                                Issued 2019 June 19, 18:22 UT  
    
         The Minor Planet Electronic Circulars contain information on unusual
             minor planets and routine data on comets.  They are published
        on behalf of Division F of the International Astronomical Union by the
              Minor Planet Center, Smithsonian Astrophysical Observatory,
                              Cambridge, MA 02138, U.S.A.
    
                 Prepared using the Tamkin Foundation Computer Network
    
                                  MPC@CFA.HARVARD.EDU
                URL https://www.minorplanetcenter.net/    ISSN 1523-6714
    
                                    2019 LH6                                 
    
    Observations:
         K19L06H* C2019 06 09.55857 21 09 30.454+06 35 15.84         19.4 wUEM055F51
         K19L06H  C2019 06 09.57049721 09 51.619+06 31 32.51               VEM055F51
         K19L06H  C2019 06 09.58197 21 10 12.014+06 27 57.07         19.6 wUEM055F51
         K19L06H KC2019 06 09.98098921 23 22.59 +04 13 20.7          19.1 GVEM055L01
         K19L06H KC2019 06 09.98246921 23 25.58 +04 12 49.7          19.2 GVEM055L01
         K19L06H KC2019 06 09.98372621 23 28.15 +04 12 23.4          19.1 GVEM055L01
         K19L06H KC2019 06 09.98497821 23 30.70 +04 11 56.9          18.7 GVEM055L01
         K19L06H pC2019 06 09.98706321 23 34.93 +04 11 12.7          19.0 GVEM055L01
         K19L06H KC2019 06 10.01601 21 24 32.52 +04 00 50.0          18.8 RoEM055K88
         K19L06H KC2019 06 10.01939 21 24 39.35 +03 59 37.4          18.6 RoEM055K88
         K19L06H KC2019 06 10.02276 21 24 46.23 +03 58 25.4          18.9 RoEM055K88
         K19L06H KC2019 06 10.42449 21 39 27.91 +01 26 38.6          19.4 GVEM055V01
         K19L06H KC2019 06 10.42718 21 39 33.90 +01 25 35.1          19.4 GVEM055V01
         K19L06H KC2019 06 11.02714 22 04 27.59 -02 53 12.4          18.5 RoEM055K88
         K19L06H KC2019 06 11.03320 22 04 43.43 -02 55 59.5          18.4 RoEM055K88
    
    Observer details:
    F51 Pan-STARRS 1, Haleakala.  Observers J. Bulger, T. Lowe, A. Schultz,
        M. Willman, K. Chambers, E. Magnier.  Measurers K. Chambers, S. Chastel,
        T. de Boer, L. Denneau, J. Fairlamb, H. Flewelling, M. Huber, C.-C. Lin,
        E. Magnier, Y. Ramanjooloo, R. Wainscoat, R. Weryk.  
        1.8-m Ritchey-Chretien + CCD.
    K88 GINOP-KHK, Piszkesteto.  Observer K. Sarneczky.  0.60-m Schmidt + CCD.
    L01 Visnjan Observatory, Tican.  Observers K. Korlevic, G. Kervina.  
        Measurer K. Korlevic.  1.0-m f/2.9 reflector + CCD.
    V01 Mountainville Observatory, Alpine.  Observer B. Sheets.  
        0.35-m f/7.7 Schmidt-Cassegrain + CCD.
    
    Orbital elements:
    2019 LH6                                                 Earth MOID = 0.0056 AU
    Epoch 2019 Apr. 27.0 TT = JDT 2458600.5                 MPC
    M 273.84525              (2000.0)            P               Q
    n   0.78846584     Peri.  259.28552     +0.86839280     +0.30630764
    a   1.1604171      Node    81.97991     -0.13059837     +0.89991748
    e   0.2724777      Incl.   23.19195     -0.47837016     +0.31036133
    P   1.25           H   24.0           G   0.15           U   7
    Residuals in seconds of arc
    190609 F51  0.2-  0.2+    190609 L01  0.1+  0.1+    190610 K88  0.4-  0.4+
    190609 F51  0.1+  0.1-    190609 L01  0.3+  0.2+    190610 V01  0.6+  0.7-
    190609 F51  0.2+  0.1-    190609 L01  0.3+  0.1+    190610 V01  0.0   0.3+
    190609 L01  0.0   0.5-    190610 K88  0.1-  0.4+    190611 K88  0.2-  0.2-
    190609 L01  0.2-  0.2-    190610 K88  0.7-  0.2+    190611 K88  0.0   0.3+
    
    Ephemeris:
    2019 LH6                 a,e,i = 1.16, 0.27, 23                  q = 0.8442
    Date    TT    R. A. (2000) Decl.     Delta      r    Elong.  Phase     V
    2019 05 20    18 35 15.6 +25 15 14   0.2048  1.1248   118.8    52.0    22.7
    ...
    2019 06 04    19 34 42.6 +20 33 50   0.07991 1.0572   120.5    55.8    20.7
    ...
    2019 06 12    22 52 05.2 -10 50 44   0.03073 1.0213   100.3    78.0    19.2
    ...
    2019 06 18    03 29 38.5 -34 37 37   0.05499 0.9950    66.2   111.0    21.9
    2019 06 19    03 50 52.3 -34 40 32   0.06230 0.9907    64.4   112.4    22.3
    2019 06 20    04 07 35.5 -34 32 11   0.06989 0.9864    63.0   113.3    22.6
    ...
    2019 06 26    05 00 30.8 -32 52 27   0.1181  0.9613    59.1   114.8    23.7
    ...
    2019 07 04    05 27 27.7 -30 44 56   0.1843  0.9300    57.2   113.2    24.5
    ...
    2019 07 19    05 50 39.2 -26 36 45   0.3073  0.8812    55.8   107.4    25.2
    
    A. U. Tomatic                (C) Copyright 2019 MPC           M.P.E.C. 2019-M55
    


    Read MPEC 2019-M54 Read MPEC 2019-M56


    MPEC number:

    Enter an MPEC number in one of the following forms:

    • 1997-B01 (the full form)
    • J97B01 (the packed version of the full form)
    • B01 (the abbreviated form)